Regional Weather Roundup
Issued by NWS

Home | Current Version | Previous Version | Text Only | Print | Product List | Glossary On
Versions: 1 2 3 4 5 6 7 8 9 10 11 12 13 14 15 16 17 18 19 20 21 22 23 24 25 26 27 28 29 30 31 32 33 34 35 36 37 38 39 40 41 42 43 44 45 46 47 48
000
ASUS46 KPQR 080910
RWROR

OREGON REGIONAL WEATHER ROUNDUP
NATIONAL WEATHER SERVICE PORTLAND OR
100 AM PST MON FEB 08 2016

NOTE: "FAIR" INDICATES FEW OR NO CLOUDS BELOW 12,000 FEET WITH
NO SIGNIFICANT WEATHER AND/OR OBSTRUCTIONS TO VISIBILITY.

ORZ001>013-081000-
NORTHWEST OREGON


CITY           SKY/WX    TMP DP  RH WIND       PRES   REMARKS
ASTORIA        CLEAR     48  43  82 NE12      30.39F
NEWPORT        CLEAR     55  46  71 E14       30.37F
PORTLAND       CLEAR     45  40  82 NW3       30.46S
VANCOUVER WA   CLEAR     40  37  89 CALM      30.45S
SCAPPOOSE      CLEAR     41  40  96 CALM      30.45S
HILLSBORO      PTCLDY    40  40 100 CALM      30.44F FOG
AURORA         CLEAR     45  37  73 N6        30.44S
MCMINNVILLE    CLEAR     46  41  82 N6        30.44S
SALEM          CLEAR     41  39  93 CALM      30.42S
CORVALLIS      CLOUDY    43  39  87 CALM      30.44S VSB 1/4
EUGENE         FOG       45  44  97 CALM      30.42F VSB 1/4
$$

ORZ021-028-081000-
SOUTHWEST OREGON


CITY           SKY/WX    TMP DP  RH WIND       PRES   REMARKS
NORTH BEND     CLEAR     57  52  82 S5        30.30F
BROOKINGS      CLEAR     71  42  35 NE9       30.25F
ROSEBURG       CLOUDY    49  48  97 CALM      30.40F
SEXTON SUMMIT  LGT RAIN  52  37  56 E20G30    30.41F
MEDFORD        CLEAR     44  41  89 CALM      30.42S
$$

ORZ014>016-041-081000-
COLUMBIA GORGE


CITY           SKY/WX    TMP DP  RH WIND       PRES   REMARKS
TROUTDALE      CLEAR     50  36  58 E20G31    30.44S
THE DALLES     CLEAR     36  32  85 E3        30.64S
$$

ORZ029>031-041-044-049-050-061>064-502-503-505>511-081000-
EASTERN OREGON


CITY           SKY/WX    TMP DP  RH WIND       PRES   REMARKS
REDMOND        PTCLDY    30  28  92 CALM      30.54F
BEND           PTCLDY    36  32  87 CALM      30.55F
PRINEVILLE     PTCLDY    41  36  81 S8        30.55F
KLAMATH FALLS  CLEAR     34  31  88 N6        30.55S WCI  29
LAKEVIEW       CLEAR     34  28  80 NW8       30.59F WCI  27
HERMISTON      CLEAR     32  30  92 S5        30.61F WCI  27
PENDLETON      CLEAR     34  31  88 SE5       30.58F WCI  30
JOHN DAY       PTCLDY    40  33  76 SE9       30.59F WCI  34
MEACHAM        CLEAR     27  24  89 CALM      30.57F
LA GRANDE      CLEAR     34  28  80 W6        30.62F WCI  29
BAKER CITY     PTCLDY    22  21  96 CALM      30.65S
BURNS          MOCLDY    18  15  88 CALM      30.64S
ROME             N/A     32  29  88 S6        30.62F WCI  26
ONTARIO        CLEAR     30  27  88 W3        30.70S
$$



USA.gov is the U.S. government's official web portal to all federal, state and local government web resources and services.